[[{"header":{"parameterUnit":"m.s-1","parameterCategory":1,"la1":30.2991,"la2":30.254,"lo1":-89.0895,"lo2":-89.0444,"dy":0.0017,"dx":0.0017,"nx":28,"ny":28,"refTime":"2025-05-20T03:00:00:Z","depth":0,"parameterNumber":2,"parameterNumberName":"U-component_of_WINDS"},"data":[0,0,0,0,0,0,0,0,0,0,0,0,0,0,0,0,0,0,0,0,0,0,0,0,0,0,0,0,0,0,0,0,0,0,0,0,0,0,0,0,0,0,0,0,0,0,0,0,0,0,0,0,0,0,0,0,0,0,-1.6827,-1.6828,0,-1.6935,-1.6936,-1.6938,-1.6962,-1.6961,-1.696,-1.6959,-1.7073,-1.7077,-1.7081,0,0,0,0,0,0,0,0,0,0,0,0,0,-1.6644,-1.6647,-1.6827,-1.6828,-1.6829,-1.6935,-1.6936,-1.6938,-1.6962,-1.6961,-1.696,-1.6959,-1.7072,-1.7077,-1.7081,0,0,0,0,0,0,0,0,0,0,0,0,0,-1.6735,-1.6648,-1.6826,-1.6854,-1.6858,-1.6935,-1.6936,-1.6938,-1.6962,-1.6961,-1.696,-1.6959,-1.7071,-1.7076,-1.7082,-1.714,0,0,-1.7099,-1.7101,0,0,0,0,0,0,0,0,-1.673,-1.6742,-1.6849,-1.6852,-1.6856,-1.6934,-1.6914,-1.7006,-1.6962,-1.6922,-1.6959,-1.6958,-1.7028,-1.7037,-1.706,-1.7145,-1.715,-1.7099,-1.7103,-1.7105,-1.7107,0,0,0,0,0,0,0,-1.6724,-1.6737,-1.687,-1.685,-1.6855,-1.6862,-1.6874,-1.6931,-1.6981,-1.6926,-1.6928,-1.694,-1.703,-1.7055,-1.7063,-1.7152,-1.7099,-1.7104,-1.7108,-1.711,-1.7291,-1.7293,0,0,0,0,0,0,-1.6712,-1.6732,-1.6866,-1.6873,-1.6789,-1.6866,-1.6879,-1.691,-1.698,-1.6989,-1.6941,-1.6941,-1.7045,-1.7056,-1.7067,-1.714,-1.7105,-1.711,-1.7114,-1.729,-1.7292,-1.7293,0,0,0,0,0,0,-1.6708,-1.6724,-1.6862,-1.6803,-1.6821,-1.6871,-1.6905,-1.6913,-1.6937,-1.6991,-1.7001,-1.6957,-1.7045,-1.7059,-1.7122,-1.7145,-1.7113,-1.7118,-1.7288,-1.729,-1.7292,-1.7287,0,0,0,0,0,0,-1.6703,-1.6722,-1.6744,-1.6803,-1.6824,-1.6914,-1.6906,-1.6916,-1.6947,-1.6948,-1.7009,-1.7018,-1.7045,-1.7113,-1.7127,-1.7152,-1.7123,-1.7286,-1.7289,-1.7292,-1.7286,-1.7289,-1.7292,0,0,0,0,0,-1.6696,-1.6738,-1.6745,-1.6761,-1.6852,-1.6915,-1.6927,-1.6957,-1.6948,-1.6971,-1.7006,-1.7016,-1.714,-1.7119,-1.7135,-1.7162,-1.7285,-1.7288,-1.7292,-1.7284,-1.7288,-1.7292,0,0,0,0,0,0,-1.6681,-1.6747,-1.6754,-1.6817,-1.686,-1.6919,-1.6948,-1.696,-1.7007,-1.7006,-1.7041,-1.7055,-1.7116,-1.7145,-1.7121,-1.7223,-1.7212,-1.7219,-1.7201,-1.7206,-1.7209,-1.72,-1.7127,0,0,0,0,0,-1.6685,-1.673,-1.6785,-1.6835,-1.6856,-1.6898,-1.6927,-1.6946,-1.6992,-1.7011,-1.705,-1.7096,-1.7145,-1.7177,-1.7225,-1.729,-1.7304,-1.7316,-1.7319,-1.7322,-1.7327,-1.7365,-1.7371,-1.7304,-1.7304,-1.7304,0,0,-1.6694,-1.6735,-1.6761,-1.6833,-1.6868,-1.6915,-1.6914,-1.6962,-1.6998,-1.7019,-1.708,-1.7111,-1.7164,-1.7228,-1.7258,-1.7254,-1.7349,-1.7326,-1.7327,-1.7332,-1.7369,-1.7375,-1.7381,-1.7306,-1.7306,-1.7305,0,0,-1.6734,-1.6769,-1.6815,-1.6851,-1.6904,-1.6932,-1.6943,-1.7,-1.7021,-1.7083,-1.71,-1.7143,-1.7227,-1.7265,-1.7295,-1.7349,-1.7361,-1.7364,-1.7381,-1.7417,-1.7422,-1.7427,-1.7448,-1.7454,-1.7369,-1.737,-1.737,0,-1.6739,-1.6808,-1.6838,-1.6886,-1.6917,-1.6938,-1.6985,-1.7019,-1.7086,-1.7108,-1.7102,-1.7209,-1.7246,-1.7319,-1.7333,-1.7356,-1.7371,-1.7358,-1.7419,-1.7424,-1.7429,-1.7449,-1.7457,-1.737,-1.737,-1.737,-1.737,0,-1.6811,-1.6859,-1.689,-1.6953,-1.6989,-1.7036,-1.7074,-1.7106,-1.7123,-1.7152,-1.7215,-1.7261,-1.7319,-1.7338,-1.7354,-1.7414,-1.741,-1.7411,-1.7402,-1.7435,-1.7455,-1.7462,-1.737,-1.737,-1.737,-1.737,0,0,-1.6845,-1.6924,-1.6935,-1.6964,-1.7025,-1.7064,-1.7113,-1.7169,-1.7196,-1.7242,-1.7285,-1.7356,-1.7357,-1.7391,-1.7413,-1.7444,-1.7486,-1.7442,-1.7444,-1.7449,-1.7556,-1.7555,-1.7563,-1.7493,-1.7495,-1.7496,-1.7552,0,-1.6893,-1.698,-1.7009,-1.7082,-1.7127,-1.7148,-1.7191,-1.7233,-1.7262,-1.7305,-1.7338,-1.7387,-1.7385,-1.7406,-1.7438,-1.7474,-1.7508,-1.747,-1.7535,-1.7537,-1.7521,-1.7573,-1.7573,-1.7623,-1.7559,-1.7561,-1.7562,0,-1.6961,-1.7007,-1.7084,-1.714,-1.716,-1.7198,-1.7252,-1.7293,-1.7342,-1.7361,-1.7399,-1.7418,-1.7471,-1.7458,-1.7533,-1.7507,-1.7535,-1.7557,-1.756,-1.7567,-1.7552,-1.7583,-1.7639,-1.7647,-1.7574,-1.7573,-1.7572,0,-1.6979,-1.706,-1.7117,-1.7141,-1.7207,-1.7234,-1.7263,-1.7311,-1.7343,-1.7391,-1.7412,-1.7466,-1.7496,-1.7537,-1.7571,-1.7558,-1.7643,-1.7632,-1.7661,-1.766,-1.7679,-1.7677,-1.7741,-1.7696,-1.7695,-1.7695,-1.7695,0,-1.703,-1.7077,-1.7126,-1.7161,-1.7215,-1.7247,-1.73,-1.733,-1.7373,-1.7415,-1.7436,-1.7476,-1.7517,-1.7562,-1.7589,-1.7647,-1.7661,-1.7678,-1.7685,-1.7677,-1.7675,-1.7696,-1.7694,-1.7697,-1.7697,-1.7696,-1.7696,0,-1.7059,-1.7094,-1.7158,-1.7215,-1.723,-1.7267,-1.7317,-1.7353,-1.7382,-1.7435,-1.745,-1.7496,-1.7551,-1.7588,-1.7658,-1.7676,-1.774,-1.7746,-1.7723,-1.7727,-1.7754,-1.7751,-1.7834,-1.7847,-1.7792,-1.7792,-1.7793,0,-1.709,-1.7126,-1.7187,-1.7216,-1.7245,-1.7292,-1.7325,-1.7359,-1.7392,-1.7452,-1.748,-1.7536,-1.7583,-1.7669,-1.771,-1.7764,-1.7772,-1.7797,-1.778,-1.7771,-1.7774,-1.7771,-1.7776,-1.78,-1.7801,-1.7801,-1.7801,0,-1.7141,-1.7156,-1.7202,-1.7254,-1.7292,-1.7335,-1.7379,-1.7402,-1.7443,-1.748,-1.7536,-1.7572,-1.7643,-1.7699,-1.7757,-1.7788,-1.7802,-1.7806,-1.7816,-1.7808,-1.7794,-1.7803,-1.7731,-1.7804,-1.7804,-1.7804,-1.7803,-1.7803,-1.7173,-1.7207,-1.7255,-1.7305,-1.7341,-1.7381,-1.7417,-1.7451,-1.7497,-1.7557,-1.7575,-1.7633,-1.7682,-1.7761,-1.7794,-1.7841,-1.7838,-1.7852,-1.7856,-1.7859,-1.786,-1.7786,-1.7851,-1.7851,-1.7851,-1.7851,-1.7851,0,-1.7226,-1.7258,-1.7304,-1.7363,-1.7403,-1.7412,-1.746,-1.7493,-1.7544,-1.7588,-1.7633,-1.7698,-1.7752,-1.7797,-1.7853,-1.7882,-1.789,-1.7896,-1.7894,-1.7902,-1.7858,-1.7844,-1.7888,-1.7888,-1.7888,-1.7888,-1.7888,-1.7888,-1.7259,-1.7316,-1.7337,-1.7413,-1.7445,-1.7501,-1.7528,-1.7565,-1.7601,-1.7671,-1.7716,-1.7745,-1.779,-1.7849,-1.79,-1.7912,-1.7932,-1.7937,-1.795,-1.7909,-1.7905,-1.7901,-1.7888,-1.7941,-1.7941,-1.799,-1.7991,-1.7991]},{"header":{"parameterUnit":"m.s-1","parameterCategory":1,"la1":30.2991,"la2":30.254,"lo1":-89.0895,"lo2":-89.0444,"dy":0.0017,"dx":0.0017,"nx":28,"ny":28,"refTime":"2025-05-20T03:00:00:Z","depth":0,"parameterNumber":3,"parameterNumberName":"V-component_of_WINDS"},"data":[0,0,0,0,0,0,0,0,0,0,0,0,0,0,0,0,0,0,0,0,0,0,0,0,0,0,0,0,0,0,0,0,0,0,0,0,0,0,0,0,0,0,0,0,0,0,0,0,0,0,0,0,0,0,0,0,0,0,5.7155,5.7156,0,5.7239,5.724,5.7241,5.72,5.7198,5.7195,5.7193,5.7276,5.728,5.7285,0,0,0,0,0,0,0,0,0,0,0,0,0,5.6956,5.696,5.7155,5.7156,5.7157,5.7239,5.724,5.7241,5.72,5.7198,5.7195,5.7192,5.7275,5.728,5.7285,0,0,0,0,0,0,0,0,0,0,0,0,0,5.7041,5.6961,5.7155,5.7147,5.7147,5.7239,5.724,5.7241,5.7201,5.7197,5.7194,5.7191,5.7273,5.7279,5.7286,5.739,0,0,5.7305,5.7308,0,0,0,0,0,0,0,0,5.7037,5.7049,5.7147,5.7147,5.7148,5.7206,5.72,5.7291,5.7202,5.718,5.7193,5.719,5.7255,5.7263,5.7286,5.7393,5.7397,5.7306,5.7309,5.7312,5.7314,0,0,0,0,0,0,0,5.7031,5.7045,5.7188,5.7148,5.7149,5.7138,5.7146,5.7217,5.7235,5.7182,5.7179,5.719,5.7255,5.728,5.7287,5.7398,5.7305,5.7311,5.7315,5.7317,5.7594,5.7597,0,0,0,0,0,0,5.7026,5.704,5.7185,5.7191,5.7083,5.7144,5.7153,5.719,5.7234,5.7237,5.7192,5.7187,5.727,5.728,5.729,5.7413,5.7312,5.7318,5.7322,5.7591,5.7595,5.7599,0,0,0,0,0,0,5.7021,5.7039,5.7182,5.7115,5.7132,5.7151,5.7192,5.7194,5.7218,5.7242,5.7244,5.7215,5.7268,5.7281,5.7365,5.7416,5.7321,5.7327,5.7586,5.7592,5.7597,5.7662,0,0,0,0,0,0,5.7016,5.7038,5.7078,5.7116,5.7136,5.7257,5.7196,5.7198,5.723,5.7224,5.7264,5.7267,5.7267,5.7356,5.7371,5.7423,5.7332,5.7582,5.7589,5.7595,5.7655,5.7669,5.768,0,0,0,0,0,5.7009,5.7093,5.708,5.7098,5.7187,5.726,5.7271,5.727,5.7234,5.7274,5.7289,5.7266,5.7408,5.7365,5.7382,5.7436,5.7579,5.7587,5.7595,5.7649,5.7666,5.768,0,0,0,0,0,0,5.7059,5.7097,5.7084,5.7183,5.7219,5.7253,5.7303,5.7288,5.7333,5.7326,5.7322,5.7331,5.7418,5.7435,5.7387,5.7538,5.7488,5.7499,5.7523,5.7539,5.7552,5.7545,5.7337,0,0,0,0,0,5.7082,5.7139,5.7169,5.7253,5.7272,5.7285,5.7317,5.7313,5.7349,5.7363,5.7385,5.742,5.7472,5.7507,5.7557,5.7658,5.7665,5.7703,5.7716,5.7726,5.7736,5.7789,5.7806,5.7625,5.7625,5.7625,0,0,5.7129,5.7157,5.7193,5.7264,5.7291,5.7349,5.7298,5.7361,5.7404,5.7373,5.7453,5.747,5.7509,5.7602,5.7644,5.7619,5.7788,5.7736,5.7744,5.7748,5.7799,5.7816,5.7832,5.763,5.7629,5.7628,0,0,5.7245,5.7273,5.7345,5.7374,5.7416,5.7424,5.7441,5.7478,5.7488,5.7569,5.7547,5.7597,5.7688,5.7716,5.7742,5.7869,5.7848,5.7885,5.795,5.8002,5.8016,5.8029,5.8073,5.8089,5.7895,5.7895,5.7895,0,5.7298,5.7386,5.7384,5.745,5.7481,5.7456,5.7529,5.7556,5.7612,5.7634,5.7605,5.7719,5.7743,5.7842,5.7872,5.7895,5.7914,5.788,5.8015,5.8027,5.8039,5.8081,5.8097,5.7899,5.7899,5.7898,5.7898,0,5.7448,5.7509,5.7562,5.7618,5.7655,5.7724,5.7732,5.7769,5.7762,5.7773,5.7855,5.7884,5.7938,5.7962,5.7955,5.8059,5.8042,5.8015,5.7964,5.806,5.8099,5.8115,5.7905,5.7904,5.7902,5.7901,0,0,5.7597,5.7651,5.767,5.7695,5.7739,5.7786,5.7853,5.7907,5.7939,5.7978,5.8033,5.8111,5.8086,5.8116,5.8112,5.8158,5.8255,5.8125,5.8125,5.8147,5.8369,5.8389,5.8408,5.8242,5.8245,5.8248,5.8366,0,5.7715,5.7833,5.7834,5.7943,5.7998,5.7976,5.8034,5.8067,5.8079,5.8126,5.8139,5.8194,5.8157,5.8174,5.8219,5.8234,5.8299,5.8225,5.8292,5.8294,5.8282,5.8428,5.8449,5.856,5.8381,5.8384,5.8386,0,5.7868,5.7913,5.8027,5.8063,5.8086,5.8139,5.8188,5.8235,5.8271,5.8276,5.831,5.8299,5.8366,5.8314,5.8406,5.8356,5.8383,5.8394,5.8399,5.8404,5.8345,5.8436,5.8595,5.8611,5.841,5.8408,5.8406,0,5.7963,5.8053,5.8132,5.8154,5.8198,5.8235,5.8255,5.8288,5.8321,5.8364,5.8384,5.8435,5.8462,5.85,5.8503,5.8465,5.8595,5.8543,5.86,5.86,5.8627,5.8625,5.8791,5.8647,5.8647,5.8647,5.8646,0,5.8094,5.8165,5.8176,5.8224,5.8302,5.8302,5.8379,5.8395,5.8425,5.8476,5.846,5.8507,5.8509,5.8558,5.856,5.8635,5.8648,5.8653,5.8652,5.8654,5.8653,5.867,5.8662,5.8651,5.865,5.8649,5.8648,0,5.8214,5.8224,5.8309,5.8344,5.8354,5.841,5.8439,5.8485,5.8496,5.856,5.8575,5.8591,5.8647,5.8654,5.872,5.8722,5.8811,5.8803,5.8799,5.8797,5.8853,5.8847,5.9035,5.9059,5.8901,5.8902,5.8904,0,5.8296,5.8349,5.839,5.8423,5.8445,5.8499,5.8532,5.8534,5.8569,5.8614,5.8654,5.8709,5.8753,5.8844,5.8861,5.8911,5.8903,5.8965,5.891,5.8909,5.8902,5.8899,5.8903,5.8976,5.8977,5.8979,5.898,0,5.844,5.8442,5.8491,5.8542,5.8582,5.8621,5.8658,5.8686,5.8692,5.8732,5.879,5.8824,5.8891,5.8946,5.8995,5.9014,5.8998,5.8997,5.9013,5.9014,5.9009,5.9011,5.8827,5.8993,5.8991,5.8991,5.899,5.8989,5.8542,5.8589,5.8624,5.8679,5.8707,5.8742,5.8787,5.8803,5.8851,5.8907,5.8904,5.8968,5.9002,5.9067,5.9089,5.9138,5.9117,5.914,5.9146,5.9151,5.9156,5.9002,5.9147,5.9147,5.9147,5.9146,5.9146,0,5.8684,5.8706,5.8756,5.8809,5.8852,5.8834,5.8874,5.8911,5.8967,5.9001,5.9044,5.911,5.9163,5.9184,5.9235,5.927,5.9264,5.9283,5.928,5.9284,5.9172,5.9153,5.9287,5.9287,5.9287,5.9287,5.9287,5.9287,5.8763,5.884,5.8847,5.8937,5.8958,5.9021,5.9045,5.9077,5.9104,5.9178,5.9222,5.9236,5.9264,5.9317,5.9364,5.9369,5.9388,5.9411,5.9412,5.9307,5.9292,5.9279,5.9261,5.9415,5.9415,5.952,5.9521,5.9521]}]]